User: anonymous   Login
Location: Unspecified
(0.0000°N, 0.0000°E)
Time: 06:15:36
(UTC+00:00)
Language:

DNEPR OBJECT AD - Orbit

View from above orbital plane
View from above orbital plane
View from above satellite
View from above satellite

Ground track
Ground track

The orbit data is extracted from the following two-line orbital elements,

1 39443U 13066AD  18116.60708160 +.00000583 +00000-0 +58601-4 0  9994
2 39443 097.6147 178.6222 0023010 245.5114 114.3707 14.94798737239146
Epoch (UTC): 26 April 2018 14:34:11
Eccentricity: 0.0023010
inclination: 97.6147°
perigee height: 567 km
apogee height: 599 km
right ascension of ascending node: 178.6222°
argument of perigee: 245.5114°
revolutions per day: 14.94798737
mean anomaly at epoch: 114.3707°
orbit number at epoch: 23914

The dashed part of the orbit path shows where the satellite is in the earth's shadow,  

DLR